Regional Weather Roundup
Issued by NWS

Home | Current Version | Previous Version | Text Only | Print | Product List | Glossary Off
Versions: 1 2 3 4 5 6 7 8 9 10 11 12 13 14 15 16 17 18 19 20 21 22 23 24 25 26 27 28 29 30 31 32 33 34 35 36 37 38 39 40 41 42 43 44 45 46 47 48 49 50

000
ASUS43 KLOT 221758
RWRIL

ILLINOIS REGIONAL WEATHER ROUNDUP
NATIONAL WEATHER SERVICE CHICAGO/ROMEOVILLE IL
100 PM CDT TUE JUL 22 2014

NOTE: "FAIR" INDICATES FEW OR NO CLOUDS BELOW 12,000 FEET WITH NO
SIGNIFICANT WEATHER AND/OR OBSTRUCTIONS TO VISIBILITY.

* THESE STATIONS ARE NOT UNDER NWS QUALITY CONTROL. THEY ALSO MAY NOT
  REPORT WEATHER SUCH AS PRECIPITATION OR FOG.

ILZ001-002-007-009-015-016-024-221900-
NORTHWEST ILLINOIS

CITY           SKY/WX    TMP DP  RH WIND       PRES   REMARKS
MOLINE         MOSUNNY   85  73  67 W10       29.95F HX  91
6HR MIN TEMP:  74; 6HR MAX TEMP:  86;

$$

ILZ003-004-008-010-011-017-018-221900-
NORTH CENTRAL ILLINOIS

CITY           SKY/WX    TMP DP  RH WIND       PRES   REMARKS
ROCKFORD       NOT AVBL
$$

ILZ005-006-012>014-019>023-221900-
NORTHEAST ILLINOIS

CITY           SKY/WX    TMP DP  RH WIND       PRES   REMARKS
CHICAGO-OHARE  PTSUNNY   86  68  54 SW14G21   29.98F HX  89
6HR MIN TEMP:  73; 6HR MAX TEMP:  87;

CHICAGO-MIDWAY PTSUNNY   87  70  56 SW15G23   29.99F HX  92
6HR MIN TEMP:  73; 6HR MAX TEMP:  88;

AURORA         PTSUNNY   85  71  63 SW14      29.99F HX  90
6HR MIN TEMP:  68; 6HR MAX TEMP:  86;

WAUKEGAN       MOSUNNY   88  70  55 SW16G26   29.94F HX  93
6HR MIN TEMP:  72; 6HR MAX TEMP:  88;

DUPAGE AIRPORT PTSUNNY   88  71  57 SW20G25   29.98F HX  94
6HR MIN TEMP:  70; 6HR MAX TEMP:  88;

WHEELING       PTSUNNY   88  70  55 S15       29.97F HX  93
6HR MIN TEMP:  74; 6HR MAX TEMP:  88;

NORTHERLY ISL    N/A     84  66  54 S13         N/A  HX  86
$$

LMZ740>746-221900-
SOUTHERN LAKE MICHIGAN

STATION/POSITION SKY/WX   TEMP    WIND        PRES    VSBY  WAVE
                          AIR SEA DIR/SP/G                  HT/PER
                          (F)     (DEG/KT/KT) (MB)    (MI)  (FT/S)
SOUTHERN BUOY              70 68  180/ 16/ 17 1015.2F         2/ 4
WAUKEGAN HARBOR            82     220/ 13/ 26 1015.9S
HARRISON CRIB              81     210/ 20/ 26   N/A
BURNHAM HARBOR             85     180/  8/ 18   N/A
CALUMET HARBOR             84     220/  9/ 14 1014.6F
BURNS HARBOR               80     210/ 12/ 19 1017.3S
MICHIGAN CITY              79     200/ 14/ 19   N/A
$$

ILZ025>027-034>036-040-047-049-050-058-095>099-221900-
WEST-CENTRAL ILLINOIS

CITY           SKY/WX    TMP DP  RH WIND       PRES   REMARKS
QUINCY         LGT RAIN  76  72  87 W14       30.00F
$$

ILZ028>032-037-038-041>044-048-051>054-059>061-221900-
CENTRAL ILLINOIS

CITY           SKY/WX    TMP DP  RH WIND       PRES   REMARKS
PEORIA         NOT AVBL
SPRINGFIELD    CLOUDY    85  71  63 S10       30.03S HX  90
6HR MIN TEMP:  73; 6HR MAX TEMP:  85;

TAYLORVILLE    NOT AVBL
$$

ILZ033-039-045-046-055>057-062-063-221900-
EAST-CENTRAL ILLINOIS

CITY           SKY/WX    TMP DP  RH WIND       PRES   REMARKS
$$

ILZ079-100>102-221900-
SOUTHWEST ILLINOIS

CITY           SKY/WX    TMP DP  RH WIND       PRES   REMARKS
ALTON          CLOUDY    84  72  65 VRB6      30.06F HX  89
SPARTA*        SUNNY     82  68  61 CALM      30.10S HX  85
$$

ILZ064>066-069>071-074>076-080>082-084>086-088>090-092>094-221900-
SOUTH-CENTRAL ILLINOIS

CITY           SKY/WX    TMP DP  RH WIND       PRES   REMARKS
CARBONDALE     MOSUNNY   87  69  54 S9        30.09S HX  91
6HR MIN TEMP:  66; 6HR MAX TEMP:  87;

MARION         MOSUNNY   88  68  51 S7        30.10S HX  91
$$

ILZ067-068-072-073-078-083-087-091-221900-
SOUTHEAST ILLINOIS

CITY           SKY/WX    TMP DP  RH WIND       PRES   REMARKS
$$

ABBREVIATIONS USED IN REMARKS
   TC - TEMPERATURE IN CELSIUS
  WCI - WIND CHILL INDEX
   HX - HEAT INDEX
  VSB - VISIBILITY
$$



USA.gov is the U.S. government's official web portal to all federal, state and local government web resources and services.